Time,TemperatureF,DewpointF,PressureIn,WindDirection,WindDirectionDegrees,WindSpeedMPH,WindSpeedGustMPH,Humidity,HourlyPrecipIn,Conditions,Clouds,dailyrainin,SoftwareType,DateUTC
2013-01-11 00:03:00,28.3,24.3,30.57,NW,309,0.0,0.0,85,0.00,,,0.00,WUHU216DAVISWMX,2013-01-11 05:03:00,
2013-01-11 00:08:00,28.1,24.1,30.57,NW,309,0.0,0.0,85,0.00,,,0.00,WUHU216DAVISWMX,2013-01-11 05:08:00,
2013-01-11 00:13:00,28.0,24.0,30.57,NW,309,0.0,0.0,85,0.00,,,0.00,WUHU216DAVISWMX,2013-01-11 05:13:00,
2013-01-11 00:18:00,27.9,23.9,30.57,NW,309,0.0,0.0,85,0.00,,,0.00,WUHU216DAVISWMX,2013-01-11 05:18:00,
2013-01-11 00:23:00,27.8,23.9,30.57,NW,309,0.0,0.0,85,0.00,,,0.00,WUHU216DAVISWMX,2013-01-11 05:23:00,
2013-01-11 00:28:00,27.7,23.8,30.57,NW,309,0.0,0.0,85,0.00,,,0.00,WUHU216DAVISWMX,2013-01-11 05:28:00,
2013-01-11 00:33:00,27.5,23.8,30.57,NW,309,0.0,0.0,86,0.00,,,0.00,WUHU216DAVISWMX,2013-01-11 05:33:00,
2013-01-11 00:38:00,27.5,23.8,30.56,NW,309,0.0,0.0,86,0.00,,,0.00,WUHU216DAVISWMX,2013-01-11 05:38:00,
2013-01-11 00:43:00,27.4,23.7,30.56,NW,309,0.0,0.0,86,0.00,,,0.00,WUHU216DAVISWMX,2013-01-11 05:43:00,
2013-01-11 00:48:00,27.3,23.6,30.55,NW,309,1.0,3.0,86,0.00,,,0.00,WUHU216DAVISWMX,2013-01-11 05:48:00,
2013-01-11 00:53:00,27.3,23.6,30.55,NW,309,0.0,3.0,86,0.00,,,0.00,WUHU216DAVISWMX,2013-01-11 05:53:00,
2013-01-11 00:58:00,27.2,23.5,30.55,NW,309,0.0,0.0,86,0.00,,,0.00,WUHU216DAVISWMX,2013-01-11 05:58:00,
2013-01-11 01:03:00,27.2,23.5,30.55,NW,309,0.0,0.0,86,0.00,,,0.00,WUHU216DAVISWMX,2013-01-11 06:03:00,
2013-01-11 01:08:00,27.1,23.4,30.55,NW,309,0.0,0.0,86,0.00,,,0.00,WUHU216DAVISWMX,2013-01-11 06:08:00,
2013-01-11 01:13:00,26.8,23.1,30.55,NW,309,0.0,0.0,86,0.00,,,0.00,WUHU216DAVISWMX,2013-01-11 06:13:00,
2013-01-11 01:18:00,26.6,22.9,30.55,NW,309,0.0,2.0,86,0.00,,,0.00,WUHU216DAVISWMX,2013-01-11 06:18:00,
2013-01-11 01:23:00,26.6,22.9,30.55,NW,309,0.0,2.0,86,0.00,,,0.00,WUHU216DAVISWMX,2013-01-11 06:23:00,
2013-01-11 01:29:00,26.5,22.8,30.56,NW,309,0.0,2.0,86,0.00,,,0.00,WUHU216DAVISWMX,2013-01-11 06:29:00,
2013-01-11 01:34:00,26.4,22.7,30.56,NW,309,0.0,2.0,86,0.00,,,0.00,WUHU216DAVISWMX,2013-01-11 06:34:00,
2013-01-11 01:39:00,26.3,22.6,30.56,NW,309,0.0,0.0,86,0.00,,,0.00,WUHU216DAVISWMX,2013-01-11 06:39:00,
2013-01-11 01:44:00,26.2,22.6,30.56,NW,309,0.0,0.0,86,0.00,,,0.00,WUHU216DAVISWMX,2013-01-11 06:44:00,
2013-01-11 01:49:00,26.2,22.6,30.56,NW,309,0.0,0.0,86,0.00,,,0.00,WUHU216DAVISWMX,2013-01-11 06:49:00,
2013-01-11 01:54:00,26.0,22.4,30.56,NW,309,0.0,0.0,86,0.00,,,0.00,WUHU216DAVISWMX,2013-01-11 06:54:00,
2013-01-11 01:59:00,25.9,22.3,30.55,NW,309,0.0,0.0,86,0.00,,,0.00,WUHU216DAVISWMX,2013-01-11 06:59:00,
2013-01-11 02:04:00,25.8,22.2,30.55,NW,309,0.0,0.0,86,0.00,,,0.00,WUHU216DAVISWMX,2013-01-11 07:04:00,
2013-01-11 02:09:00,25.6,22.2,30.55,NW,309,0.0,0.0,87,0.00,,,0.00,WUHU216DAVISWMX,2013-01-11 07:09:00,
2013-01-11 02:14:00,25.5,22.1,30.55,NW,309,0.0,0.0,87,0.00,,,0.00,WUHU216DAVISWMX,2013-01-11 07:14:00,
2013-01-11 02:19:00,25.5,21.9,30.55,NW,309,0.0,0.0,86,0.00,,,0.00,WUHU216DAVISWMX,2013-01-11 07:19:00,
2013-01-11 02:24:00,25.6,22.2,30.55,NW,309,0.0,0.0,87,0.00,,,0.00,WUHU216DAVISWMX,2013-01-11 07:24:00,
2013-01-11 02:29:00,25.4,22.0,30.55,NW,309,0.0,0.0,87,0.00,,,0.00,WUHU216DAVISWMX,2013-01-11 07:29:00,
2013-01-11 02:34:00,25.3,21.7,30.54,NW,309,0.0,0.0,86,0.00,,,0.00,WUHU216DAVISWMX,2013-01-11 07:34:00,
2013-01-11 02:39:00,25.2,21.6,30.54,NW,309,0.0,0.0,86,0.00,,,0.00,WUHU216DAVISWMX,2013-01-11 07:39:00,
2013-01-11 02:44:00,25.1,21.7,30.54,NW,309,0.0,0.0,87,0.00,,,0.00,WUHU216DAVISWMX,2013-01-11 07:44:00,
2013-01-11 02:49:00,25.1,21.7,30.54,NW,309,0.0,0.0,87,0.00,,,0.00,WUHU216DAVISWMX,2013-01-11 07:49:00,
2013-01-11 02:54:00,25.0,21.6,30.54,NW,309,0.0,0.0,87,0.00,,,0.00,WUHU216DAVISWMX,2013-01-11 07:54:00,
2013-01-11 02:59:00,24.9,21.5,30.54,NW,309,0.0,0.0,87,0.00,,,0.00,WUHU216DAVISWMX,2013-01-11 07:59:00,
2013-01-11 03:04:00,24.9,21.5,30.54,NW,309,0.0,0.0,87,0.00,,,0.00,WUHU216DAVISWMX,2013-01-11 08:04:00,
2013-01-11 03:09:00,24.7,21.3,30.53,NW,309,0.0,0.0,87,0.00,,,0.00,WUHU216DAVISWMX,2013-01-11 08:09:00,
2013-01-11 03:14:00,24.7,21.6,30.53,NW,309,0.0,0.0,88,0.00,,,0.00,WUHU216DAVISWMX,2013-01-11 08:14:00,
2013-01-11 03:19:00,24.6,21.2,30.54,NW,309,0.0,0.0,87,0.00,,,0.00,WUHU216DAVISWMX,2013-01-11 08:19:00,
2013-01-11 03:24:00,24.4,21.3,30.53,NW,309,0.0,0.0,88,0.00,,,0.00,WUHU216DAVISWMX,2013-01-11 08:24:00,
2013-01-11 03:29:00,24.4,21.3,30.53,NW,309,0.0,0.0,88,0.00,,,0.00,WUHU216DAVISWMX,2013-01-11 08:29:00,
2013-01-11 03:34:00,24.3,20.9,30.53,NW,309,0.0,0.0,87,0.00,,,0.00,WUHU216DAVISWMX,2013-01-11 08:34:00,
2013-01-11 03:39:00,24.2,21.1,30.53,NW,309,0.0,0.0,88,0.00,,,0.00,WUHU216DAVISWMX,2013-01-11 08:39:00,
2013-01-11 03:44:00,24.2,21.1,30.53,NW,309,0.0,0.0,88,0.00,,,0.00,WUHU216DAVISWMX,2013-01-11 08:44:00,
2013-01-11 03:49:00,24.1,21.0,30.53,NW,309,0.0,0.0,88,0.00,,,0.00,WUHU216DAVISWMX,2013-01-11 08:49:00,
2013-01-11 03:54:00,24.0,20.9,30.53,NW,309,0.0,0.0,88,0.00,,,0.00,WUHU216DAVISWMX,2013-01-11 08:54:00,
2013-01-11 03:59:00,23.9,20.8,30.53,NW,309,0.0,0.0,88,0.00,,,0.00,WUHU216DAVISWMX,2013-01-11 08:59:00,
2013-01-11 04:04:00,24.0,20.9,30.53,NW,309,0.0,0.0,88,0.00,,,0.00,WUHU216DAVISWMX,2013-01-11 09:04:00,
2013-01-11 04:09:00,23.9,20.8,30.53,NW,309,0.0,0.0,88,0.00,,,0.00,WUHU216DAVISWMX,2013-01-11 09:09:00,
2013-01-11 04:14:00,23.9,20.8,30.53,NW,309,0.0,0.0,88,0.00,,,0.00,WUHU216DAVISWMX,2013-01-11 09:14:00,
2013-01-11 04:19:00,23.8,21.0,30.53,NW,309,0.0,0.0,89,0.00,,,0.00,WUHU216DAVISWMX,2013-01-11 09:19:00,
2013-01-11 04:24:00,23.9,20.8,30.52,NW,309,0.0,0.0,88,0.00,,,0.00,WUHU216DAVISWMX,2013-01-11 09:24:00,
2013-01-11 04:29:00,23.8,20.7,30.53,NW,309,0.0,0.0,88,0.00,,,0.00,WUHU216DAVISWMX,2013-01-11 09:29:00,
2013-01-11 04:34:00,23.8,20.7,30.53,NW,309,0.0,0.0,88,0.00,,,0.00,WUHU216DAVISWMX,2013-01-11 09:34:00,
2013-01-11 04:39:00,23.7,20.6,30.52,NW,309,0.0,0.0,88,0.00,,,0.00,WUHU216DAVISWMX,2013-01-11 09:39:00,
2013-01-11 04:44:00,23.5,20.4,30.52,NW,309,0.0,0.0,88,0.00,,,0.00,WUHU216DAVISWMX,2013-01-11 09:44:00,
2013-01-11 04:49:00,23.4,20.3,30.52,NW,309,0.0,0.0,88,0.00,,,0.00,WUHU216DAVISWMX,2013-01-11 09:49:00,
2013-01-11 04:54:00,23.3,20.2,30.53,NW,309,0.0,0.0,88,0.00,,,0.00,WUHU216DAVISWMX,2013-01-11 09:54:00,
2013-01-11 04:59:00,23.3,20.5,30.53,NW,309,0.0,0.0,89,0.00,,,0.00,WUHU216DAVISWMX,2013-01-11 09:59:00,
2013-01-11 05:04:00,23.3,20.2,30.53,NW,309,0.0,0.0,88,0.00,,,0.00,WUHU216DAVISWMX,2013-01-11 10:04:00,
2013-01-11 05:09:00,23.3,20.2,30.53,NW,309,0.0,0.0,88,0.00,,,0.00,WUHU216DAVISWMX,2013-01-11 10:09:00,
2013-01-11 05:14:00,23.2,20.1,30.53,NW,309,0.0,0.0,88,0.00,,,0.00,WUHU216DAVISWMX,2013-01-11 10:14:00,
2013-01-11 05:19:00,23.2,20.1,30.53,NW,309,0.0,0.0,88,0.00,,,0.00,WUHU216DAVISWMX,2013-01-11 10:19:00,
2013-01-11 05:24:00,23.2,20.1,30.53,NW,309,0.0,0.0,88,0.00,,,0.00,WUHU216DAVISWMX,2013-01-11 10:24:00,
2013-01-11 05:29:00,23.2,20.4,30.54,NW,309,0.0,0.0,89,0.00,,,0.00,WUHU216DAVISWMX,2013-01-11 10:29:00,
2013-01-11 05:34:00,23.2,20.1,30.54,NW,309,0.0,0.0,88,0.00,,,0.00,WUHU216DAVISWMX,2013-01-11 10:34:00,
2013-01-11 05:39:00,23.2,20.4,30.54,NW,309,0.0,0.0,89,0.00,,,0.00,WUHU216DAVISWMX,2013-01-11 10:39:00,
2013-01-11 05:44:00,23.2,20.4,30.54,NW,309,0.0,0.0,89,0.00,,,0.00,WUHU216DAVISWMX,2013-01-11 10:44:00,
2013-01-11 05:49:00,23.4,20.9,30.55,NW,309,0.0,0.0,90,0.00,,,0.00,WUHU216DAVISWMX,2013-01-11 10:49:00,
2013-01-11 05:54:00,23.4,20.6,30.54,NW,309,0.0,0.0,89,0.00,,,0.00,WUHU216DAVISWMX,2013-01-11 10:54:00,
2013-01-11 05:59:00,23.4,20.6,30.54,NW,309,0.0,0.0,89,0.00,,,0.00,WUHU216DAVISWMX,2013-01-11 10:59:00,
2013-01-11 06:04:00,23.4,20.6,30.54,NW,309,0.0,0.0,89,0.00,,,0.00,WUHU216DAVISWMX,2013-01-11 11:04:00,
2013-01-11 06:09:00,23.4,20.9,30.54,NW,309,0.0,0.0,90,0.00,,,0.00,WUHU216DAVISWMX,2013-01-11 11:09:00,
2013-01-11 06:14:00,23.4,20.6,30.54,NW,309,0.0,0.0,89,0.00,,,0.00,WUHU216DAVISWMX,2013-01-11 11:14:00,
2013-01-11 06:19:00,23.5,20.7,30.54,NW,309,0.0,0.0,89,0.00,,,0.00,WUHU216DAVISWMX,2013-01-11 11:19:00,
2013-01-11 06:24:00,23.4,20.6,30.54,NW,309,0.0,0.0,89,0.00,,,0.00,WUHU216DAVISWMX,2013-01-11 11:24:00,
2013-01-11 06:29:00,23.5,20.7,30.54,NW,309,0.0,0.0,89,0.00,,,0.00,WUHU216DAVISWMX,2013-01-11 11:29:00,
2013-01-11 06:34:00,23.5,20.7,30.55,NW,309,0.0,0.0,89,0.00,,,0.00,WUHU216DAVISWMX,2013-01-11 11:34:00,
2013-01-11 06:39:00,23.6,20.8,30.54,NW,309,0.0,0.0,89,0.00,,,0.00,WUHU216DAVISWMX,2013-01-11 11:39:00,
2013-01-11 06:44:00,23.6,20.8,30.54,NW,309,0.0,0.0,89,0.00,,,0.00,WUHU216DAVISWMX,2013-01-11 11:44:00,
2013-01-11 06:49:00,23.7,21.1,30.55,NW,309,0.0,0.0,90,0.00,,,0.00,WUHU216DAVISWMX,2013-01-11 11:49:00,
2013-01-11 06:54:00,23.7,20.9,30.55,NW,309,0.0,0.0,89,0.00,,,0.00,WUHU216DAVISWMX,2013-01-11 11:54:00,
2013-01-11 06:59:00,23.7,20.9,30.55,NW,309,0.0,0.0,89,0.00,,,0.00,WUHU216DAVISWMX,2013-01-11 11:59:00,
2013-01-11 07:04:00,23.8,21.0,30.55,NW,309,0.0,0.0,89,0.00,,,0.00,WUHU216DAVISWMX,2013-01-11 12:04:00,
2013-01-11 07:09:00,23.8,21.2,30.54,NW,309,0.0,0.0,90,0.00,,,0.00,WUHU216DAVISWMX,2013-01-11 12:09:00,
2013-01-11 07:14:00,24.0,21.4,30.54,NW,309,0.0,0.0,90,0.00,,,0.00,WUHU216DAVISWMX,2013-01-11 12:14:00,
2013-01-11 07:19:00,24.1,21.5,30.54,NW,309,0.0,0.0,90,0.00,,,0.00,WUHU216DAVISWMX,2013-01-11 12:19:00,
2013-01-11 07:24:00,24.0,21.4,30.54,NW,309,0.0,0.0,90,0.00,,,0.00,WUHU216DAVISWMX,2013-01-11 12:24:00,
2013-01-11 07:29:00,24.1,21.5,30.55,NW,309,0.0,0.0,90,0.00,,,0.00,WUHU216DAVISWMX,2013-01-11 12:29:00,
2013-01-11 07:34:00,24.2,21.6,30.55,NW,309,0.0,0.0,90,0.00,,,0.00,WUHU216DAVISWMX,2013-01-11 12:34:00,
2013-01-11 07:39:00,24.2,21.4,30.54,NW,309,0.0,0.0,89,0.00,,,0.00,WUHU216DAVISWMX,2013-01-11 12:39:00,
2013-01-11 07:44:00,24.3,21.7,30.54,NW,309,0.0,0.0,90,0.00,,,0.00,WUHU216DAVISWMX,2013-01-11 12:44:00,
2013-01-11 07:49:00,24.3,21.7,30.54,NW,309,0.0,0.0,90,0.00,,,0.00,WUHU216DAVISWMX,2013-01-11 12:49:00,
2013-01-11 07:54:00,24.4,21.6,30.54,NW,309,0.0,0.0,89,0.00,,,0.00,WUHU216DAVISWMX,2013-01-11 12:54:00,
2013-01-11 07:59:00,24.5,21.7,30.54,NW,309,0.0,0.0,89,0.00,,,0.00,WUHU216DAVISWMX,2013-01-11 12:59:00,
2013-01-11 08:04:00,24.6,22.0,30.54,NW,309,0.0,0.0,90,0.00,,,0.00,WUHU216DAVISWMX,2013-01-11 13:04:00,
2013-01-11 08:09:00,24.7,22.1,30.54,NW,309,0.0,0.0,90,0.00,,,0.00,WUHU216DAVISWMX,2013-01-11 13:09:00,
2013-01-11 08:14:00,24.8,22.0,30.54,NW,309,0.0,0.0,89,0.00,,,0.00,WUHU216DAVISWMX,2013-01-11 13:14:00,
2013-01-11 08:19:00,25.1,22.5,30.54,NW,309,0.0,0.0,90,0.00,,,0.00,WUHU216DAVISWMX,2013-01-11 13:19:00,
2013-01-11 08:24:00,25.3,22.7,30.54,NW,309,0.0,0.0,90,0.00,,,0.00,WUHU216DAVISWMX,2013-01-11 13:24:00,
2013-01-11 08:29:00,25.5,22.7,30.54,NW,309,0.0,0.0,89,0.00,,,0.00,WUHU216DAVISWMX,2013-01-11 13:29:00,
2013-01-11 08:34:00,25.7,23.1,30.53,NW,309,0.0,0.0,90,0.00,,,0.00,WUHU216DAVISWMX,2013-01-11 13:34:00,
2013-01-11 08:39:00,26.1,23.3,30.53,NW,309,0.0,0.0,89,0.00,,,0.00,WUHU216DAVISWMX,2013-01-11 13:39:00,
2013-01-11 08:44:00,26.3,23.5,30.53,NW,309,0.0,0.0,89,0.00,,,0.00,WUHU216DAVISWMX,2013-01-11 13:44:00,
2013-01-11 08:49:00,26.6,23.5,30.53,NW,309,0.0,0.0,88,0.00,,,0.00,WUHU216DAVISWMX,2013-01-11 13:49:00,
2013-01-11 08:54:00,26.9,23.8,30.53,NW,309,0.0,3.0,88,0.00,,,0.00,WUHU216DAVISWMX,2013-01-11 13:54:00,
2013-01-11 08:59:00,27.1,24.0,30.53,NW,309,0.0,3.0,88,0.00,,,0.00,WUHU216DAVISWMX,2013-01-11 13:59:00,
2013-01-11 09:04:00,27.3,24.2,30.53,NW,309,0.0,1.0,88,0.00,,,0.00,WUHU216DAVISWMX,2013-01-11 14:04:00,
2013-01-11 09:09:00,27.6,24.2,30.53,NW,309,0.0,0.0,87,0.00,,,0.00,WUHU216DAVISWMX,2013-01-11 14:09:00,
2013-01-11 09:14:00,27.8,24.1,30.53,NW,309,0.0,0.0,86,0.00,,,0.00,WUHU216DAVISWMX,2013-01-11 14:14:00,
2013-01-11 09:19:00,28.1,24.7,30.54,NW,309,0.0,0.0,87,0.00,,,0.00,WUHU216DAVISWMX,2013-01-11 14:19:00,
2013-01-11 09:24:00,28.4,24.7,30.54,NW,309,0.0,0.0,86,0.00,,,0.00,WUHU216DAVISWMX,2013-01-11 14:24:00,
2013-01-11 09:29:00,28.7,24.7,30.53,NW,309,0.0,0.0,85,0.00,,,0.00,WUHU216DAVISWMX,2013-01-11 14:29:00,
2013-01-11 09:34:00,29.0,25.0,30.54,NW,309,0.0,0.0,85,0.00,,,0.00,WUHU216DAVISWMX,2013-01-11 14:34:00,
2013-01-11 09:39:00,29.2,25.2,30.53,NW,309,0.0,0.0,85,0.00,,,0.00,WUHU216DAVISWMX,2013-01-11 14:39:00,
2013-01-11 09:44:00,29.6,25.6,30.53,NW,309,0.0,0.0,85,0.00,,,0.00,WUHU216DAVISWMX,2013-01-11 14:44:00,
2013-01-11 09:49:00,29.9,25.6,30.53,NW,309,0.0,1.0,84,0.00,,,0.00,WUHU216DAVISWMX,2013-01-11 14:49:00,
2013-01-11 09:54:00,30.1,25.8,30.53,NW,309,0.0,1.0,84,0.00,,,0.00,WUHU216DAVISWMX,2013-01-11 14:54:00,
2013-01-11 09:59:00,30.4,25.8,30.52,NW,309,0.0,0.0,83,0.00,,,0.00,WUHU216DAVISWMX,2013-01-11 14:59:00,
2013-01-11 10:04:00,30.7,25.8,30.52,NW,309,0.0,0.0,82,0.00,,,0.00,WUHU216DAVISWMX,2013-01-11 15:04:00,
2013-01-11 10:09:00,31.1,26.2,30.52,NW,309,0.0,0.0,82,0.00,,,0.00,WUHU216DAVISWMX,2013-01-11 15:09:00,
2013-01-11 10:14:00,31.3,26.4,30.52,NW,309,0.0,0.0,82,0.00,,,0.00,WUHU216DAVISWMX,2013-01-11 15:14:00,
2013-01-11 10:19:00,31.7,26.5,30.52,NW,309,0.0,0.0,81,0.00,,,0.00,WUHU216DAVISWMX,2013-01-11 15:19:00,
2013-01-11 10:24:00,32.1,27.2,30.51,NW,309,0.0,0.0,82,0.00,,,0.00,WUHU216DAVISWMX,2013-01-11 15:24:00,
2013-01-11 10:29:00,32.5,27.0,30.51,NW,309,0.0,0.0,80,0.00,,,0.00,WUHU216DAVISWMX,2013-01-11 15:29:00,
2013-01-11 10:34:00,33.1,27.6,30.51,NW,309,0.0,0.0,80,0.00,,,0.00,WUHU216DAVISWMX,2013-01-11 15:34:00,
2013-01-11 10:39:00,33.4,27.6,30.51,NW,309,2.0,2.0,79,0.00,,,0.00,WUHU216DAVISWMX,2013-01-11 15:39:00,
2013-01-11 10:44:00,33.7,27.6,30.50,NW,309,0.0,2.0,78,0.00,,,0.00,WUHU216DAVISWMX,2013-01-11 15:44:00,
2013-01-11 10:49:00,33.9,27.5,30.50,NW,309,0.0,2.0,77,0.00,,,0.00,WUHU216DAVISWMX,2013-01-11 15:49:00,
2013-01-11 10:54:00,34.1,27.4,30.49,SE,125,0.0,4.0,76,0.00,,,0.00,WUHU216DAVISWMX,2013-01-11 15:54:00,
2013-01-11 10:59:00,34.1,27.4,30.49,SE,125,1.0,4.0,76,0.00,,,0.00,WUHU216DAVISWMX,2013-01-11 15:59:00,
2013-01-11 11:04:00,34.4,27.7,30.48,SE,125,0.0,4.0,76,0.00,,,0.00,WUHU216DAVISWMX,2013-01-11 16:04:00,
2013-01-11 11:09:00,34.5,27.8,30.48,SE,141,1.0,4.0,76,0.00,,,0.00,WUHU216DAVISWMX,2013-01-11 16:09:00,
2013-01-11 11:14:00,34.5,27.8,30.48,SE,141,0.0,4.0,76,0.00,,,0.00,WUHU216DAVISWMX,2013-01-11 16:14:00,
2013-01-11 11:19:00,34.6,27.8,30.48,SE,141,0.0,1.0,76,0.00,,,0.00,WUHU216DAVISWMX,2013-01-11 16:19:00,
2013-01-11 11:24:00,34.7,27.6,30.48,SE,141,0.0,2.0,75,0.00,,,0.00,WUHU216DAVISWMX,2013-01-11 16:24:00,
2013-01-11 11:29:00,34.8,27.7,30.47,SE,141,0.0,3.0,75,0.01,,,0.01,WUHU216DAVISWMX,2013-01-11 16:29:00,
2013-01-11 11:34:00,34.9,27.8,30.47,SE,141,0.0,3.0,75,0.01,,,0.01,WUHU216DAVISWMX,2013-01-11 16:34:00,
2013-01-11 11:39:00,35.0,27.9,30.46,SE,141,0.0,1.0,75,0.01,,,0.01,WUHU216DAVISWMX,2013-01-11 16:39:00,
2013-01-11 11:44:00,35.2,27.5,30.46,SE,141,0.0,2.0,73,0.01,,,0.01,WUHU216DAVISWMX,2013-01-11 16:44:00,
2013-01-11 11:49:00,35.4,28.0,30.46,SE,141,0.0,2.0,74,0.01,,,0.01,WUHU216DAVISWMX,2013-01-11 16:49:00,
2013-01-11 11:54:00,35.5,28.1,30.46,SE,141,0.0,0.0,74,0.01,,,0.01,WUHU216DAVISWMX,2013-01-11 16:54:00,
2013-01-11 11:59:00,35.7,28.6,30.46,SE,141,0.0,0.0,75,0.01,,,0.01,WUHU216DAVISWMX,2013-01-11 16:59:00,
2013-01-11 12:04:00,35.9,28.5,30.46,SE,141,0.0,0.0,74,0.01,,,0.01,WUHU216DAVISWMX,2013-01-11 17:04:00,
2013-01-11 12:09:00,36.0,28.2,30.46,SE,141,0.0,0.0,73,0.01,,,0.01,WUHU216DAVISWMX,2013-01-11 17:09:00,
2013-01-11 12:14:00,36.0,28.6,30.46,WSW,257,1.0,3.0,74,0.01,,,0.01,WUHU216DAVISWMX,2013-01-11 17:14:00,
2013-01-11 12:19:00,36.1,28.7,30.46,WSW,257,0.0,3.0,74,0.01,,,0.01,WUHU216DAVISWMX,2013-01-11 17:19:00,
2013-01-11 12:25:00,36.2,28.8,30.45,West,259,0.0,4.0,74,0.01,,,0.01,WUHU216DAVISWMX,2013-01-11 17:25:00,
2013-01-11 12:30:00,36.1,28.7,30.44,West,264,0.0,4.0,74,0.01,,,0.02,WUHU216DAVISWMX,2013-01-11 17:30:00,
2013-01-11 12:35:00,36.2,28.8,30.44,West,264,0.0,2.0,74,0.01,,,0.02,WUHU216DAVISWMX,2013-01-11 17:35:00,
2013-01-11 12:40:00,36.3,28.9,30.44,West,264,0.0,1.0,74,0.01,,,0.02,WUHU216DAVISWMX,2013-01-11 17:40:00,
2013-01-11 12:45:00,36.4,29.0,30.43,WSW,253,0.0,2.0,74,0.01,,,0.02,WUHU216DAVISWMX,2013-01-11 17:45:00,
2013-01-11 12:50:00,36.6,28.8,30.43,WSW,253,0.0,2.0,73,0.01,,,0.02,WUHU216DAVISWMX,2013-01-11 17:50:00,
2013-01-11 12:55:00,36.6,29.1,30.43,SW,230,0.0,2.0,74,0.01,,,0.02,WUHU216DAVISWMX,2013-01-11 17:55:00,
2013-01-11 13:00:00,36.7,28.9,30.44,SW,230,1.0,2.0,73,0.01,,,0.02,WUHU216DAVISWMX,2013-01-11 18:00:00,
2013-01-11 13:05:00,36.8,29.3,30.43,WSW,238,1.0,1.0,74,0.01,,,0.02,WUHU216DAVISWMX,2013-01-11 18:05:00,
2013-01-11 13:10:00,36.8,29.0,30.43,West,272,1.0,2.0,73,0.01,,,0.02,WUHU216DAVISWMX,2013-01-11 18:10:00,
2013-01-11 13:15:00,36.8,29.3,30.43,West,272,0.0,2.0,74,0.01,,,0.02,WUHU216DAVISWMX,2013-01-11 18:15:00,
2013-01-11 13:20:00,36.8,29.3,30.44,West,271,2.0,3.0,74,0.01,,,0.02,WUHU216DAVISWMX,2013-01-11 18:20:00,
2013-01-11 13:25:00,36.8,29.7,30.43,West,272,0.0,3.0,75,0.01,,,0.02,WUHU216DAVISWMX,2013-01-11 18:25:00,
2013-01-11 13:30:00,36.8,29.7,30.43,West,272,0.0,1.0,75,0.01,,,0.03,WUHU216DAVISWMX,2013-01-11 18:30:00,
2013-01-11 13:35:00,36.8,29.7,30.43,West,271,0.0,0.0,75,0.01,,,0.03,WUHU216DAVISWMX,2013-01-11 18:35:00,
2013-01-11 13:40:00,36.9,29.8,30.43,West,272,0.0,0.0,75,0.01,,,0.03,WUHU216DAVISWMX,2013-01-11 18:40:00,
2013-01-11 13:45:00,36.8,30.0,30.42,West,271,0.0,0.0,76,0.01,,,0.03,WUHU216DAVISWMX,2013-01-11 18:45:00,
2013-01-11 13:50:00,36.8,29.7,30.42,West,272,0.0,0.0,75,0.01,,,0.03,WUHU216DAVISWMX,2013-01-11 18:50:00,
2013-01-11 13:55:00,36.8,29.7,30.42,West,272,0.0,0.0,75,0.01,,,0.03,WUHU216DAVISWMX,2013-01-11 18:55:00,
2013-01-11 14:00:00,36.8,29.7,30.41,SSE,148,2.0,2.0,75,0.01,,,0.03,WUHU216DAVISWMX,2013-01-11 19:00:00,
2013-01-11 14:05:00,36.7,29.6,30.41,SSE,148,0.0,2.0,75,0.01,,,0.03,WUHU216DAVISWMX,2013-01-11 19:05:00,
2013-01-11 14:10:00,36.7,29.6,30.42,SSE,148,0.0,2.0,75,0.01,,,0.03,WUHU216DAVISWMX,2013-01-11 19:10:00,
2013-01-11 14:15:00,36.6,29.5,30.41,SSE,148,0.0,1.0,75,0.01,,,0.03,WUHU216DAVISWMX,2013-01-11 19:15:00,
2013-01-11 14:20:00,36.7,29.9,30.41,SSE,147,0.0,1.0,76,0.01,,,0.03,WUHU216DAVISWMX,2013-01-11 19:20:00,
2013-01-11 14:25:00,36.6,29.5,30.41,SSE,148,0.0,1.0,75,0.01,,,0.03,WUHU216DAVISWMX,2013-01-11 19:25:00,
2013-01-11 14:30:00,36.7,29.9,30.40,SSE,148,0.0,1.0,76,0.00,,,0.03,WUHU216DAVISWMX,2013-01-11 19:30:00,
2013-01-11 14:35:00,36.6,29.8,30.41,SSE,147,0.0,1.0,76,0.00,,,0.03,WUHU216DAVISWMX,2013-01-11 19:35:00,
2013-01-11 14:40:00,36.7,29.9,30.41,SSE,147,0.0,1.0,76,0.00,,,0.03,WUHU216DAVISWMX,2013-01-11 19:40:00,
2013-01-11 14:45:00,36.6,29.8,30.41,SSE,148,0.0,1.0,76,0.01,,,0.04,WUHU216DAVISWMX,2013-01-11 19:45:00,
2013-01-11 14:50:00,36.6,29.8,30.40,SSE,148,0.0,1.0,76,0.01,,,0.04,WUHU216DAVISWMX,2013-01-11 19:50:00,
2013-01-11 14:55:00,36.6,29.8,30.39,SSE,147,0.0,2.0,76,0.01,,,0.04,WUHU216DAVISWMX,2013-01-11 19:55:00,
2013-01-11 15:00:00,36.6,29.8,30.39,SSE,148,0.0,2.0,76,0.01,,,0.04,WUHU216DAVISWMX,2013-01-11 20:00:00,
2013-01-11 15:05:00,36.6,29.8,30.39,SSE,148,0.0,0.0,76,0.01,,,0.04,WUHU216DAVISWMX,2013-01-11 20:05:00,
2013-01-11 15:10:00,36.6,30.1,30.39,SSE,148,0.0,0.0,77,0.01,,,0.04,WUHU216DAVISWMX,2013-01-11 20:10:00,
2013-01-11 15:15:00,36.5,29.7,30.39,SSE,148,0.0,0.0,76,0.01,,,0.04,WUHU216DAVISWMX,2013-01-11 20:15:00,
2013-01-11 15:20:00,36.6,29.8,30.39,SSE,148,0.0,0.0,76,0.01,,,0.04,WUHU216DAVISWMX,2013-01-11 20:20:00,
2013-01-11 15:25:00,36.5,29.7,30.39,SSE,148,0.0,0.0,76,0.01,,,0.04,WUHU216DAVISWMX,2013-01-11 20:25:00,
2013-01-11 15:30:00,36.5,30.0,30.39,SSE,148,0.0,0.0,77,0.01,,,0.04,WUHU216DAVISWMX,2013-01-11 20:30:00,
2013-01-11 15:35:00,36.5,30.0,30.39,SSE,148,0.0,0.0,77,0.01,,,0.04,WUHU216DAVISWMX,2013-01-11 20:35:00,
2013-01-11 15:40:00,36.4,29.9,30.38,SSE,148,0.0,0.0,77,0.01,,,0.04,WUHU216DAVISWMX,2013-01-11 20:40:00,
2013-01-11 15:45:00,36.3,29.8,30.37,SSE,148,0.0,0.0,77,0.00,,,0.04,WUHU216DAVISWMX,2013-01-11 20:45:00,
2013-01-11 15:50:00,36.3,30.1,30.37,SSE,148,0.0,0.0,78,0.00,,,0.04,WUHU216DAVISWMX,2013-01-11 20:50:00,
2013-01-11 15:55:00,36.1,29.9,30.37,SSE,148,0.0,0.0,78,0.00,,,0.04,WUHU216DAVISWMX,2013-01-11 20:55:00,
2013-01-11 16:00:00,36.1,29.9,30.37,SSE,148,0.0,0.0,78,0.00,,,0.04,WUHU216DAVISWMX,2013-01-11 21:00:00,
2013-01-11 16:05:00,36.0,29.8,30.37,SSE,148,0.0,0.0,78,0.00,,,0.04,WUHU216DAVISWMX,2013-01-11 21:05:00,
2013-01-11 16:10:00,35.9,30.0,30.36,SSE,148,0.0,0.0,79,0.00,,,0.04,WUHU216DAVISWMX,2013-01-11 21:10:00,
2013-01-11 16:15:00,35.9,29.7,30.36,SSE,148,0.0,0.0,78,0.00,,,0.04,WUHU216DAVISWMX,2013-01-11 21:15:00,
2013-01-11 16:20:00,35.9,30.0,30.36,SSE,148,0.0,0.0,79,0.00,,,0.04,WUHU216DAVISWMX,2013-01-11 21:20:00,
2013-01-11 16:25:00,35.8,29.9,30.36,SSE,148,0.0,0.0,79,0.00,,,0.04,WUHU216DAVISWMX,2013-01-11 21:25:00,
2013-01-11 16:30:00,35.7,29.8,30.36,SSE,148,0.0,0.0,79,0.00,,,0.04,WUHU216DAVISWMX,2013-01-11 21:30:00,
2013-01-11 16:35:00,35.7,30.1,30.36,SSE,148,0.0,0.0,80,0.00,,,0.04,WUHU216DAVISWMX,2013-01-11 21:35:00,
2013-01-11 16:40:00,35.6,30.1,30.36,SSE,148,0.0,0.0,80,0.00,,,0.04,WUHU216DAVISWMX,2013-01-11 21:40:00,
2013-01-11 16:45:00,35.5,29.7,30.36,SSE,147,0.0,0.0,79,0.00,,,0.04,WUHU216DAVISWMX,2013-01-11 21:45:00,
2013-01-11 16:50:00,35.4,29.9,30.36,SSE,148,0.0,0.0,80,0.00,,,0.04,WUHU216DAVISWMX,2013-01-11 21:50:00,
2013-01-11 16:55:00,35.4,29.9,30.35,SSE,148,0.0,0.0,80,0.00,,,0.04,WUHU216DAVISWMX,2013-01-11 21:55:00,
2013-01-11 17:00:00,35.3,29.5,30.35,SSE,147,0.0,0.0,79,0.00,,,0.04,WUHU216DAVISWMX,2013-01-11 22:00:00,
2013-01-11 17:05:00,35.3,29.8,30.35,SSE,148,0.0,0.0,80,0.00,,,0.04,WUHU216DAVISWMX,2013-01-11 22:05:00,
2013-01-11 17:10:00,35.3,29.8,30.35,SSE,148,0.0,0.0,80,0.00,,,0.04,WUHU216DAVISWMX,2013-01-11 22:10:00,
2013-01-11 17:15:00,35.3,29.8,30.34,SSE,147,0.0,0.0,80,0.00,,,0.04,WUHU216DAVISWMX,2013-01-11 22:15:00,
2013-01-11 17:20:00,35.1,29.9,30.34,SSE,148,0.0,0.0,81,0.01,,,0.05,WUHU216DAVISWMX,2013-01-11 22:20:00,
2013-01-11 17:25:00,35.1,30.4,30.34,SSE,148,0.0,0.0,83,0.01,,,0.05,WUHU216DAVISWMX,2013-01-11 22:25:00,
2013-01-11 17:30:00,34.9,30.8,30.34,SSE,148,0.0,0.0,85,0.01,,,0.05,WUHU216DAVISWMX,2013-01-11 22:30:00,
2013-01-11 17:35:00,34.9,31.1,30.34,SSE,148,0.0,0.0,86,0.01,,,0.05,WUHU216DAVISWMX,2013-01-11 22:35:00,
2013-01-11 17:40:00,34.8,31.0,30.33,SSE,148,0.0,0.0,86,0.01,,,0.05,WUHU216DAVISWMX,2013-01-11 22:40:00,
2013-01-11 17:45:00,34.7,30.9,30.34,SSE,148,0.0,0.0,86,0.01,,,0.05,WUHU216DAVISWMX,2013-01-11 22:45:00,
2013-01-11 17:50:00,34.7,31.5,30.34,SSE,148,0.0,0.0,88,0.01,,,0.05,WUHU216DAVISWMX,2013-01-11 22:50:00,
2013-01-11 17:55:00,34.7,31.2,30.33,SSE,148,0.0,0.0,87,0.01,,,0.05,WUHU216DAVISWMX,2013-01-11 22:55:00,
2013-01-11 18:00:00,34.7,31.5,30.33,SSE,148,0.0,0.0,88,0.01,,,0.05,WUHU216DAVISWMX,2013-01-11 23:00:00,
2013-01-11 18:05:00,34.6,31.4,30.33,SSE,148,0.0,0.0,88,0.02,,,0.06,WUHU216DAVISWMX,2013-01-11 23:05:00,
2013-01-11 18:10:00,34.5,31.3,30.32,SSE,148,0.0,0.0,88,0.02,,,0.06,WUHU216DAVISWMX,2013-01-11 23:10:00,
2013-01-11 18:15:00,34.6,31.6,30.32,SSE,148,0.0,0.0,89,0.02,,,0.06,WUHU216DAVISWMX,2013-01-11 23:15:00,
2013-01-11 18:20:00,34.5,31.5,30.31,SSE,148,0.0,0.0,89,0.01,,,0.06,WUHU216DAVISWMX,2013-01-11 23:20:00,
2013-01-11 18:25:00,34.4,31.7,30.31,SSE,148,0.0,0.0,90,0.01,,,0.06,WUHU216DAVISWMX,2013-01-11 23:25:00,
2013-01-11 18:30:00,34.4,31.7,30.31,SSE,148,0.0,0.0,90,0.01,,,0.06,WUHU216DAVISWMX,2013-01-11 23:30:00,
2013-01-11 18:35:00,34.3,31.6,30.31,SSE,148,0.0,0.0,90,0.01,,,0.06,WUHU216DAVISWMX,2013-01-11 23:35:00,
2013-01-11 18:40:00,34.2,31.5,30.31,SSE,148,0.0,0.0,90,0.01,,,0.06,WUHU216DAVISWMX,2013-01-11 23:40:00,
2013-01-11 18:45:00,34.3,31.6,30.30,SSE,148,0.0,0.0,90,0.02,,,0.07,WUHU216DAVISWMX,2013-01-11 23:45:00,
2013-01-11 18:50:00,34.3,31.6,30.30,SSE,148,0.0,0.0,90,0.02,,,0.07,WUHU216DAVISWMX,2013-01-11 23:50:00,
2013-01-11 18:55:00,34.3,31.9,30.30,SSE,148,0.0,0.0,91,0.02,,,0.07,WUHU216DAVISWMX,2013-01-11 23:55:00,
2013-01-11 19:00:00,34.2,32.1,30.31,SSE,148,0.0,0.0,92,0.02,,,0.07,WUHU216DAVISWMX,2013-01-12 00:00:00,
2013-01-11 19:05:00,34.1,32.2,30.30,SSE,148,0.0,0.0,93,0.01,,,0.07,WUHU216DAVISWMX,2013-01-12 00:05:00,
2013-01-11 19:10:00,33.9,32.3,30.30,SSE,148,0.0,0.0,94,0.01,,,0.07,WUHU216DAVISWMX,2013-01-12 00:10:00,
2013-01-11 19:15:00,34.0,32.1,30.30,SSE,148,0.0,0.0,93,0.01,,,0.07,WUHU216DAVISWMX,2013-01-12 00:15:00,
2013-01-11 19:20:00,33.9,32.0,30.30,SSE,148,0.0,0.0,93,0.01,,,0.07,WUHU216DAVISWMX,2013-01-12 00:20:00,
2013-01-11 19:25:00,33.9,32.0,30.30,SSE,147,0.0,0.0,93,0.01,,,0.07,WUHU216DAVISWMX,2013-01-12 00:25:00,
2013-01-11 19:30:00,33.8,31.9,30.30,SSE,148,0.0,0.0,93,0.01,,,0.07,WUHU216DAVISWMX,2013-01-12 00:30:00,
2013-01-11 19:35:00,33.9,32.0,30.30,SSE,148,0.0,0.0,93,0.01,,,0.07,WUHU216DAVISWMX,2013-01-12 00:35:00,
2013-01-11 19:40:00,33.9,32.0,30.30,SSE,148,0.0,0.0,93,0.01,,,0.07,WUHU216DAVISWMX,2013-01-12 00:40:00,
2013-01-11 19:45:00,33.9,32.0,30.29,SSE,148,0.0,0.0,93,0.00,,,0.07,WUHU216DAVISWMX,2013-01-12 00:45:00,
2013-01-11 19:50:00,33.9,32.0,30.29,SSE,148,0.0,0.0,93,0.00,,,0.07,WUHU216DAVISWMX,2013-01-12 00:50:00,
2013-01-11 19:55:00,33.9,32.3,30.29,SSE,148,0.0,0.0,94,0.00,,,0.07,WUHU216DAVISWMX,2013-01-12 00:55:00,
2013-01-11 20:00:00,33.8,32.2,30.29,SSE,148,0.0,0.0,94,0.01,,,0.08,WUHU216DAVISWMX,2013-01-12 01:00:00,
2013-01-11 20:05:00,33.8,32.2,30.29,SSE,148,0.0,0.0,94,0.01,,,0.08,WUHU216DAVISWMX,2013-01-12 01:05:00,
2013-01-11 20:10:00,33.8,32.2,30.29,SSE,148,0.0,0.0,94,0.02,,,0.09,WUHU216DAVISWMX,2013-01-12 01:10:00,
2013-01-11 20:15:00,33.8,32.2,30.28,SSE,148,0.0,0.0,94,0.02,,,0.09,WUHU216DAVISWMX,2013-01-12 01:15:00,
2013-01-11 20:20:00,33.8,32.2,30.28,SSE,148,0.0,0.0,94,0.02,,,0.09,WUHU216DAVISWMX,2013-01-12 01:20:00,
2013-01-11 20:25:00,33.8,32.2,30.28,SSE,148,0.0,0.0,94,0.02,,,0.09,WUHU216DAVISWMX,2013-01-12 01:25:00,
2013-01-11 20:30:00,33.8,32.2,30.28,SSE,148,0.0,0.0,94,0.02,,,0.09,WUHU216DAVISWMX,2013-01-12 01:30:00,
2013-01-11 20:35:00,33.7,32.1,30.28,SSE,148,0.0,0.0,94,0.03,,,0.10,WUHU216DAVISWMX,2013-01-12 01:35:00,
2013-01-11 20:40:00,33.7,32.1,30.28,SSE,148,0.0,0.0,94,0.03,,,0.10,WUHU216DAVISWMX,2013-01-12 01:40:00,
2013-01-11 20:45:00,33.8,32.2,30.28,SSE,148,0.0,0.0,94,0.03,,,0.10,WUHU216DAVISWMX,2013-01-12 01:45:00,
2013-01-11 20:50:00,33.7,32.1,30.28,SSE,147,0.0,0.0,94,0.03,,,0.10,WUHU216DAVISWMX,2013-01-12 01:50:00,
2013-01-11 20:55:00,33.7,32.4,30.27,SSE,148,0.0,0.0,95,0.04,,,0.11,WUHU216DAVISWMX,2013-01-12 01:55:00,
2013-01-11 21:00:00,33.6,32.3,30.27,SSE,148,0.0,0.0,95,0.03,,,0.11,WUHU216DAVISWMX,2013-01-12 02:00:00,
2013-01-11 21:05:00,33.7,32.4,30.27,SSE,148,0.0,0.0,95,0.03,,,0.11,WUHU216DAVISWMX,2013-01-12 02:05:00,
2013-01-11 21:10:00,33.7,32.4,30.27,SSE,148,0.0,0.0,95,0.03,,,0.12,WUHU216DAVISWMX,2013-01-12 02:10:00,
2013-01-11 21:15:00,33.7,32.4,30.27,SSE,148,0.0,0.0,95,0.03,,,0.12,WUHU216DAVISWMX,2013-01-12 02:15:00,
2013-01-11 21:20:00,33.7,32.4,30.27,SSE,148,0.0,0.0,95,0.03,,,0.12,WUHU216DAVISWMX,2013-01-12 02:20:00,
2013-01-11 21:25:00,33.6,32.3,30.27,SSE,148,0.0,0.0,95,0.03,,,0.12,WUHU216DAVISWMX,2013-01-12 02:25:00,
2013-01-11 21:30:00,33.7,32.4,30.27,SSE,147,0.0,0.0,95,0.03,,,0.12,WUHU216DAVISWMX,2013-01-12 02:30:00,
2013-01-11 21:35:00,33.6,32.5,30.26,SSE,147,0.0,0.0,96,0.02,,,0.12,WUHU216DAVISWMX,2013-01-12 02:35:00,
2013-01-11 21:40:00,33.5,32.2,30.26,SSE,148,0.0,0.0,95,0.02,,,0.12,WUHU216DAVISWMX,2013-01-12 02:40:00,
2013-01-11 21:45:00,33.6,32.3,30.26,SSE,148,0.0,0.0,95,0.02,,,0.12,WUHU216DAVISWMX,2013-01-12 02:45:00,
2013-01-11 21:50:00,33.7,32.4,30.25,SSE,148,0.0,0.0,95,0.03,,,0.13,WUHU216DAVISWMX,2013-01-12 02:50:00,
2013-01-11 21:55:00,33.6,32.3,30.26,SSE,147,0.0,0.0,95,0.02,,,0.13,WUHU216DAVISWMX,2013-01-12 02:55:00,
2013-01-11 22:00:00,33.7,32.4,30.26,SSE,147,0.0,0.0,95,0.02,,,0.13,WUHU216DAVISWMX,2013-01-12 03:00:00,
2013-01-11 22:05:00,33.6,32.3,30.25,SSE,147,0.0,0.0,95,0.02,,,0.13,WUHU216DAVISWMX,2013-01-12 03:05:00,
2013-01-11 22:10:00,33.6,32.3,30.25,SSE,148,0.0,0.0,95,0.01,,,0.13,WUHU216DAVISWMX,2013-01-12 03:10:00,
2013-01-11 22:15:00,33.5,32.4,30.26,SSE,148,0.0,0.0,96,0.01,,,0.13,WUHU216DAVISWMX,2013-01-12 03:15:00,
2013-01-11 22:20:00,33.5,32.7,30.27,SSE,148,0.0,0.0,97,0.01,,,0.13,WUHU216DAVISWMX,2013-01-12 03:20:00,
2013-01-11 22:25:00,33.5,32.7,30.27,SSE,148,0.0,0.0,97,0.01,,,0.13,WUHU216DAVISWMX,2013-01-12 03:25:00,
2013-01-11 22:30:00,33.6,32.8,30.26,SSE,147,0.0,0.0,97,0.02,,,0.14,WUHU216DAVISWMX,2013-01-12 03:30:00,
2013-01-11 22:35:00,33.5,32.7,30.27,SSE,148,0.0,0.0,97,0.02,,,0.14,WUHU216DAVISWMX,2013-01-12 03:35:00,
2013-01-11 22:40:00,33.5,32.7,30.27,SSE,148,0.0,0.0,97,0.02,,,0.14,WUHU216DAVISWMX,2013-01-12 03:40:00,
2013-01-11 22:46:00,33.5,32.7,30.27,SSE,147,0.0,0.0,97,0.02,,,0.14,WUHU216DAVISWMX,2013-01-12 03:46:00,
2013-01-11 22:51:00,33.5,32.7,30.27,SSE,148,0.0,0.0,97,0.01,,,0.14,WUHU216DAVISWMX,2013-01-12 03:51:00,
2013-01-11 22:56:00,33.6,32.8,30.26,SSE,148,0.0,0.0,97,0.01,,,0.14,WUHU216DAVISWMX,2013-01-12 03:56:00,
2013-01-11 23:01:00,33.5,32.7,30.26,SSE,148,0.0,0.0,97,0.01,,,0.14,WUHU216DAVISWMX,2013-01-12 04:01:00,
2013-01-11 23:06:00,33.5,32.7,30.27,SSE,148,0.0,0.0,97,0.01,,,0.14,WUHU216DAVISWMX,2013-01-12 04:06:00,
2013-01-11 23:11:00,33.5,32.7,30.27,SSE,148,0.0,0.0,97,0.01,,,0.14,WUHU216DAVISWMX,2013-01-12 04:11:00,
2013-01-11 23:16:00,33.5,32.7,30.27,SSE,148,0.0,0.0,97,0.01,,,0.14,WUHU216DAVISWMX,2013-01-12 04:16:00,
2013-01-11 23:21:00,33.5,32.7,30.27,SSE,148,0.0,0.0,97,0.02,,,0.15,WUHU216DAVISWMX,2013-01-12 04:21:00,
2013-01-11 23:26:00,33.6,32.8,30.27,SSE,147,0.0,0.0,97,0.02,,,0.15,WUHU216DAVISWMX,2013-01-12 04:26:00,
2013-01-11 23:31:00,33.6,32.8,30.26,SSE,148,0.0,0.0,97,0.01,,,0.15,WUHU216DAVISWMX,2013-01-12 04:31:00,
2013-01-11 23:36:00,33.6,32.8,30.26,SSE,148,0.0,0.0,97,0.02,,,0.16,WUHU216DAVISWMX,2013-01-12 04:36:00,
2013-01-11 23:41:00,33.6,32.8,30.26,SSE,148,0.0,0.0,97,0.02,,,0.16,WUHU216DAVISWMX,2013-01-12 04:41:00,
2013-01-11 23:46:00,33.6,32.8,30.25,SSE,148,0.0,0.0,97,0.02,,,0.16,WUHU216DAVISWMX,2013-01-12 04:46:00,
2013-01-11 23:51:00,33.7,32.9,30.25,SSE,148,0.0,0.0,97,0.02,,,0.16,WUHU216DAVISWMX,2013-01-12 04:51:00,
2013-01-11 23:56:00,33.7,32.9,30.25,SSE,148,0.0,0.0,97,0.02,,,0.16,WUHU216DAVISWMX,2013-01-12 04:56:00,